• Processing (Info)

  • MPEC 2016-W95 : 2016 WV7

    The following Minor Planet Electronic Circular may be linked-to from your own Web pages, but must not otherwise be redistributed electronically.

    A form allowing access to any MPEC is at the bottom of this page.


    Read MPEC 2016-W94 Read MPEC 2016-W96


    M.P.E.C. 2016-W95                                Issued 2016 Nov. 27, 06:07 UT
    
         The Minor Planet Electronic Circulars contain information on unusual
             minor planets and routine data on comets.  They are published
        on behalf of Division F of the International Astronomical Union by the
              Minor Planet Center, Smithsonian Astrophysical Observatory,
                              Cambridge, MA 02138, U.S.A.
    
                 Prepared using the Tamkin Foundation Computer Network
    
                                  MPC@CFA.HARVARD.EDU
                URL https://www.minorplanetcenter.net/    ISSN 1523-6714
    
                                       2016 WV7
    
    Observations:
         K16W07V* C2016 11 25.35746 04 11 52.00 -03 27 58.0          20.2 VqEW095G96
         K16W07V  C2016 11 25.36182 04 11 56.03 -03 26 58.6          19.9 VqEW095G96
         K16W07V  C2016 11 25.36614 04 11 59.98 -03 25 59.8          20.1 VqEW095G96
         K16W07V  C2016 11 25.39895 04 12 30.11 -03 18 35.8          21.1 VqEW095G96
         K16W07V  C2016 11 25.39952 04 12 30.68 -03 18 26.6          20.9 VqEW095G96
         K16W07V  C2016 11 25.40061 04 12 31.64 -03 18 12.4          21.2 VqEW095G96
         K16W07V  C2016 11 25.40116 04 12 32.14 -03 18 05.7          20.2 VqEW095G96
         K16W07V  C2016 11 25.43446 04 13 03.25 -03 10 32.8          20.4 VqEW095I52
         K16W07V  C2016 11 25.43766 04 13 06.34 -03 09 49.2          20.4 VqEW095I52
         K16W07V  C2016 11 25.43843 04 13 07.03 -03 09 39.1                qEW095I52
         K16W07V  C2016 11 26.26724 04 27 32.86 -00 00 46.3          20.6 VqEW095G96
         K16W07V  C2016 11 26.26944 04 27 34.88 -00 00 16.1          20.5 VqEW095G96
         K16W07V  C2016 11 26.26985 04 27 35.30 -00 00 10.2          20.3 VqEW095G96
         K16W07V  C2016 11 26.27026 04 27 35.62 -00 00 05.0          20.1 VqEW095G96
         K16W07V  C2016 11 26.27711 04 27 41.93 +00 01 28.9          20.2 VqEW095I52
         K16W07V  C2016 11 26.28145 04 27 45.87 +00 02 28.5          19.8 VqEW095I52
         K16W07V  C2016 11 26.28445 04 27 48.61 +00 03 10.5          21.8 VqEW095I52
         K16W07V  C2016 11 26.28745 04 27 51.38 +00 03 51.7          20.6 VqEW095I52
         K16W07V |C2016 11 27.12960 04 42 20.57 +03 22 40.1          20.3 VuEW095807
         K16W07V |C2016 11 27.13337 04 42 24.04 +03 23 31.9          20.5 VuEW095807
         K16W07V |C2016 11 27.13714 04 42 27.50 +03 24 23.9          20.5 VuEW095807
    
    Observer details:
    807 Cerro Tololo.  Observers T. Linder, R. Holmes.  0.61-m f/6.5 astrograph
        + CCD.
    G96 Mt. Lemmon Survey.  Observer G. J. Leonard.  Measurers E. J. Christensen,
        D. C. Fuls, A. R. Gibbs, A. D. Grauer, J. A. Johnson, R. A. Kowalski,
        S. M. Larson, G. J. Leonard, R. G. Matheny, R. L. Seaman, F. C. Shelly.
        1.5-m reflector + 10K CCD.
    I52 Steward Observatory, Mt. Lemmon Station.  Observer J. A. Johnson.
        Measurers E. J. Christensen, D. C. Fuls, A. R. Gibbs, A. D. Grauer,
        J. A. Johnson, R. A. Kowalski, S. M. Larson, G. J. Leonard, R. G. Matheny,
        R. L. Seaman, F. C. Shelly.  1.0-m reflector + CCD.
    
    Orbital elements:
    2016 WV7                                                 Earth MOID = 0.0285 AU
    Epoch 2017 Feb. 16.0 TT = JDT 2457800.5                 MPC
    M  43.18517              (2000.0)            P               Q
    n   0.51231402     Peri.  349.05321     +0.47924873     -0.87507446
    a   1.5468394      Node    72.28069     +0.81051803     +0.41172768
    e   0.3454355      Incl.    4.06755     +0.33672122     +0.25441109
    P   1.92           H   27.2           G   0.15           U   7
    Residuals in seconds of arc
    161125 G96  0.3-  0.3-    161125 I52  0.5-  0.1-    161126 I52  0.2+  0.4-
    161125 G96  0.5+  0.1+    161125 I52  0.6+  0.0     161126 I52  0.3-  0.5-
    161125 G96  0.5+  0.4+    161125 I52  0.0   0.4-    161126 I52  0.4-  0.1+
    161125 G96  0.3-  0.6-    161126 G96  0.0   0.3+    161126 I52  0.0   0.0
    161125 G96  0.4+  0.9+    161126 G96  0.0   0.2+    161127 807  0.1+  0.0
    161125 G96  0.4-  0.3+    161126 G96  0.6+  0.5+    161127 807  0.1+  0.1-
    161125 G96  0.5-  0.5-    161126 G96  0.2-  0.0     161127 807  0.1-  0.0
    
    Ephemeris:
    2016 WV7                 a,e,i = 1.55, 0.35, 4                   q = 1.0125
    Date    TT    R. A. (2000) Decl.     Delta      r     Elong.  Phase     V
    2016 10 28    00 27 19.4 -34 43 41   0.08521 1.0463   126.3    49.9    23.8
    ...
    2016 11 12    01 27 45.7 -31 06 02   0.04892 1.0189   125.4    52.3    22.6
    ...
    2016 11 20    02 48 51.0 -20 04 30   0.03310 1.0129   138.1    40.6    21.4
    ...
    2016 11 26    04 22 53.2 -00 59 18   0.02767 1.0126   157.8    21.6    20.5
    2016 11 27    04 39 58.4 +02 49 57   0.02768 1.0129   160.5    19.0    20.4
    2016 11 28    04 56 57.1 +06 36 39   0.02798 1.0133   162.3    17.2    20.4
    ...
    2016 12 04    06 26 53.1 +24 27 55   0.03500 1.0177   155.9    23.3    21.1
    ...
    2016 12 12    07 40 11.0 +34 43 19   0.05249 1.0289   146.8    31.6    22.2
    ...
    2016 12 27    08 28 52.6 +39 42 04   0.09388 1.0650   148.9    28.5    23.5
    
    A. U. Tomatic                (C) Copyright 2016 MPC           M.P.E.C. 2016-W95
    

    Read MPEC 2016-W94 Read MPEC 2016-W96


    MPEC number:

    Enter an MPEC number in one of the following forms:

    • 1997-B01 (the full form)
    • J97B01 (the packed version of the full form)
    • B01 (the abbreviated form)